Theta_e
298 298 299 300 301 301 301 301 301 301 300 300 300 299 298 297 296 296 296 296 297 298 298 298 297 298 298 298 297 296 296 296 295 294 293 292 292 292 292 291 290 290 290 290 289 289 289 289 288 287 286 286 285 284 284 283 283 282 281 281 281 280
298 298 298 299 300 300 300 300 300 300 300 299 298 298 297 296 295 295 295 295 296 296 296 296 297 297 297 297 297 296 296 296 295 294 292 292 291 292 292 291 290 290 289 289 289 288 288 288 286 285 285 285 285 284 283 282 282 282 281 280 280 280
297 297 298 299 298 298 299 300 300 300 300 299 298 297 297 296 295 295 295 295 295 295 295 295 296 296 297 296 296 296 296 296 295 294 293 291 290 290 290 290 289 289 289 288 288 288 287 287 285 284 284 284 283 283 283 282 282 282 281 281 280 280
296 295 295 294 297 298 299 299 299 299 299 300 298 297 297 296 295 295 294 294 295 295 295 295 295 296 296 295 295 294 294 295 295 294 291 289 289 289 289 289 289 289 288 288 288 287 287 287 285 283 284 284 283 282 282 282 281 281 280 280 279 279
295 296 296 297 298 298 298 298 299 299 299 298 298 297 297 297 296 295 295 294 294 294 294 294 294 294 294 294 294 293 292 293 293 292 290 289 288 288 289 289 288 288 287 287 287 287 286 285 284 283 283 283 283 282 282 282 281 281 280 280 279 278
291 293 294 296 296 296 297 298 298 299 298 298 297 297 297 296 295 295 294 293 293 293 292 292 292 292 292 293 293 292 292 293 292 290 290 289 288 287 288 288 287 287 287 286 286 286 285 284 283 282 283 283 283 282 282 281 280 280 280 280 279 278
292 295 296 296 296 296 297 298 299 298 298 297 297 297 295 295 294 294 293 292 292 291 291 291 291 291 291 292 292 292 292 292 292 289 289 288 287 287 286 286 286 286 286 286 285 285 285 284 283 282 282 282 282 282 281 280 280 280 280 280 280 280
292 291 293 295 296 297 297 297 298 298 297 297 297 297 295 294 293 293 293 292 291 291 291 291 290 290 291 291 291 291 291 291 291 289 289 288 287 287 286 285 285 285 285 285 285 285 285 285 283 282 282 282 282 281 281 280 280 280 280 280 279 279
293 293 293 294 294 294 296 296 296 296 297 297 296 296 295 293 292 292 292 291 291 291 291 291 291 290 290 290 291 291 291 290 290 289 288 287 288 287 286 285 284 285 285 284 284 284 284 284 283 282 281 281 281 281 280 279 279 278 278 278 278 278
292 292 293 292 293 293 293 295 296 297 297 298 297 295 294 294 292 292 291 291 291 291 291 291 291 290 290 289 290 290 290 291 290 289 288 287 287 286 286 285 285 284 284 284 284 284 284 283 282 282 281 281 281 281 280 279 278 277 277 277 278 278
293 293 292 292 291 292 293 294 295 295 296 296 296 294 294 293 292 292 291 291 291 292 292 291 290 290 289 289 289 290 290 290 290 289 288 287 287 287 286 286 285 284 284 283 283 282 282 282 282 282 281 281 280 280 279 278 278 278 278 278 278 278
295 293 292 290 291 293 293 294 294 295 296 296 296 293 293 292 292 292 291 291 292 292 291 290 289 289 288 289 289 289 290 290 290 289 288 287 287 287 286 285 285 284 283 283 282 282 282 282 282 283 285 284 281 280 280 279 278 278 278 278 278 277
293 292 290 292 292 293 294 294 295 294 294 295 294 294 293 292 292 292 291 291 292 291 289 289 289 288 288 288 288 288 289 289 289 288 288 287 287 286 285 285 284 284 283 283 282 282 282 282 282 284 287 287 286 281 280 279 278 278 278 278 278 277
293 292 293 293 293 293 293 293 293 292 293 295 294 294 290 291 292 292 292 292 291 290 289 289 289 288 288 288 288 288 288 288 288 288 287 287 286 286 285 284 284 284 283 283 283 282 282 282 284 287 288 288 287 284 280 279 279 279 278 278 278 278
294 293 292 292 293 293 293 294 292 292 293 293 294 291 290 291 291 292 291 291 290 289 289 289 288 288 288 288 287 287 287 287 287 287 287 286 286 286 284 284 284 284 283 283 282 282 282 282 285 288 288 289 288 286 283 280 279 279 279 278 278 278
292 292 291 291 292 292 293 291 293 294 293 292 288 290 291 291 291 291 292 291 290 289 288 288 287 287 288 287 287 286 286 286 287 287 287 287 286 285 285 284 284 284 283 283 282 282 282 281 284 288 287 288 287 287 284 279 279 279 279 279 278 278
291 289 288 288 288 288 288 288 290 290 288 288 289 290 290 290 291 291 291 290 289 288 288 288 287 287 287 287 286 286 286 286 286 286 286 286 286 285 285 284 284 283 284 283 282 282 281 281 285 287 288 288 288 287 285 279 279 279 279 278 278 278
291 292 291 289 288 288 287 289 287 287 289 287 289 288 289 290 290 291 290 289 289 289 289 288 287 287 287 286 286 286 286 286 286 286 286 286 286 286 286 285 285 284 284 283 282 282 281 282 286 287 288 288 289 288 282 279 279 278 278 278 278 278
291 290 288 287 286 287 288 287 286 286 286 285 286 287 288 288 289 290 290 289 289 289 288 288 288 287 287 286 286 286 286 286 285 286 286 286 286 285 285 285 285 284 284 283 282 282 282 281 284 287 287 288 289 287 281 280 279 279 278 278 278 278
286 286 286 286 287 286 285 285 286 286 286 285 285 285 287 288 289 289 289 289 289 289 288 288 288 287 287 286 286 286 286 286 286 286 286 285 285 285 285 285 285 284 284 283 282 282 282 282 282 286 287 288 289 285 281 280 279 279 278 278 278 278
286 286 285 285 287 288 285 285 285 286 286 285 285 285 287 288 289 289 289 290 289 288 288 288 288 287 287 286 286 286 286 286 286 286 285 285 285 285 285 285 284 283 283 283 283 283 282 282 282 285 287 288 288 285 281 280 279 278 278 277 277 278
286 288 287 286 288 285 284 285 285 285 286 286 283 285 287 289 289 290 289 288 287 287 287 287 287 287 287 287 287 286 286 286 285 284 284 284 284 284 284 284 284 283 282 282 282 282 282 282 281 284 287 287 288 285 281 280 279 278 277 277 277 277
286 286 287 287 286 285 284 285 285 286 285 284 284 287 289 289 288 287 287 287 287 287 287 287 287 287 287 287 287 287 285 284 284 283 283 283 282 282 283 283 283 283 282 282 281 281 281 281 281 283 287 288 287 285 282 280 279 279 278 278 278 277
284 283 285 285 284 283 283 284 285 286 285 283 286 288 288 286 286 286 285 286 286 287 287 287 287 287 287 287 286 284 284 283 283 283 283 282 282 282 282 282 282 282 282 281 280 280 280 280 282 283 286 288 287 285 284 280 280 280 279 278 278 278
285 287 287 287 284 283 282 283 284 285 284 285 288 287 285 285 284 284 285 285 285 286 286 286 286 286 286 285 285 284 283 282 282 281 282 281 281 281 281 282 281 281 280 279 279 279 279 279 281 284 285 286 286 285 284 283 282 283 281 279 278 278
285 287 287 286 284 283 281 282 285 285 284 286 288 284 284 283 283 283 284 284 284 284 284 284 285 285 285 284 284 283 283 281 281 280 281 281 281 280 280 281 280 280 279 278 277 278 278 279 280 283 284 285 286 286 285 285 284 284 281 281 280 280
287 286 286 287 285 284 282 281 284 285 285 286 285 284 283 283 282 282 283 283 283 283 283 282 283 283 283 283 283 283 281 280 279 279 278 279 280 280 280 280 280 279 278 278 277 277 277 278 279 281 283 284 285 286 286 285 284 285 284 281 281 281
282 282 284 286 286 286 284 282 282 284 287 285 283 281 281 280 281 282 283 283 282 281 280 281 279 280 281 282 282 283 282 281 280 280 279 279 279 280 280 280 279 279 278 277 277 276 277 277 278 279 281 283 284 285 286 285 285 284 284 283 282 282
285 286 285 286 287 286 286 284 284 285 286 285 284 281 280 280 282 283 281 281 279 277 278 280 279 278 278 277 278 279 279 280 280 280 279 279 280 280 280 280 279 279 278 277 277 276 276 276 277 278 279 281 282 283 284 285 284 284 284 283 282 283
284 286 286 287 288 286 285 284 284 284 283 282 281 280 279 280 281 282 280 278 278 278 278 279 278 279 278 278 279 278 277 277 279 279 279 279 280 280 280 279 279 279 278 278 277 277 276 276 276 277 278 279 281 282 283 284 284 283 283 283 282 282
286 286 286 286 287 284 283 283 283 282 281 281 279 278 279 280 279 279 276 275 275 277 277 278 278 279 278 277 276 275 277 280 280 280 280 281 282 282 281 280 280 280 280 279 278 277 276 276 276 277 280 279 281 280 281 281 282 283 284 284 283 281
284 284 285 285 285 283 283 282 282 280 278 278 277 277 279 280 278 276 276 276 277 276 276 276 277 276 278 278 278 277 275 280 282 280 280 280 282 284 284 284 281 281 281 280 280 280 278 277 278 280 281 281 282 282 283 282 283 283 282 284 284 281
284 283 283 283 282 282 281 281 281 279 277 276 276 277 279 278 279 278 278 277 277 278 278 277 277 277 277 277 277 277 276 276 278 283 283 283 283 283 284 284 283 283 283 281 280 281 282 281 282 282 282 282 282 282 282 282 283 283 283 285 282 280
282 282 282 283 281 281 281 280 279 277 277 276 276 277 278 279 280 280 279 278 277 278 278 277 277 277 276 275 275 276 276 276 276 277 282 283 283 283 284 284 283 283 283 283 282 280 280 282 282 282 282 282 282 282 283 283 283 283 283 284 283 277
282 281 280 280 279 279 279 278 278 274 273 273 274 275 277 278 279 279 278 278 277 277 277 277 277 277 276 275 275 274 276 276 276 276 276 280 283 283 283 283 283 283 283 283 283 283 281 282 282 282 282 282 282 282 282 282 282 283 283 284 280 276
280 280 280 279 278 278 278 277 276 273 273 271 273 275 277 278 278 278 277 277 277 277 276 276 276 276 275 275 275 276 276 276 276 276 277 276 277 279 281 283 283 283 283 283 283 282 282 282 283 283 282 282 282 282 282 282 280 282 283 281 277 274
278 278 278 278 278 277 276 276 274 270 270 271 272 274 275 275 275 275 275 275 276 277 277 276 276 276 276 275 275 276 276 276 275 276 276 276 276 275 275 276 279 282 283 282 282 282 282 283 283 283 282 282 282 282 282 281 278 277 278 278 272 271
276 276 275 274 274 274 274 274 270 267 266 268 271 272 274 275 275 275 275 275 276 276 276 276 276 276 276 276 276 277 277 276 276 276 276 276 275 275 275 275 276 276 280 281 281 282 282 282 282 282 282 281 282 282 282 276 274 275 275 274 272 271
Wind_Speed
11 11 11 9 8 8 8 7 8 8 8 9 10 13 11 11 9 8 8 9 8 8 10 11 10 10 9 9 8 8 9 9 8 8 8 7 7 8 8 8 7 7 7 7 7 7 7 6 7 7 8 8 9 8 8 7 9 10 9 7 9 8
10 10 10 9 9 8 8 9 7 9 9 9 9 7 6 7 8 9 10 9 9 8 8 9 10 10 10 9 9 9 9 9 9 8 8 9 8 8 9 9 9 9 9 8 8 8 8 8 7 8 9 9 9 9 9 9 9 10 10 8 7 8
9 9 8 8 6 6 5 7 10 9 8 10 10 11 10 9 9 9 9 8 9 9 10 10 10 11 9 9 9 9 9 8 9 8 8 7 9 8 9 10 10 10 10 10 10 10 10 10 9 8 9 9 9 8 9 10 10 11 9 9 9 7
6 5 4 4 5 7 8 7 6 8 11 11 10 10 11 11 10 10 9 8 8 9 9 9 8 9 9 10 9 10 9 9 9 8 7 9 8 10 11 11 10 9 9 10 10 10 10 10 11 10 9 10 10 9 8 10 11 11 10 10 11 9
6 7 7 7 9 8 7 7 8 10 10 9 9 11 12 11 11 9 9 9 9 10 8 8 9 9 10 11 10 10 9 9 9 8 9 9 9 8 10 11 10 10 10 10 10 10 10 10 10 9 10 11 12 12 10 10 11 12 12 12 12 12
5 5 6 7 7 7 8 8 8 8 8 8 8 12 11 10 9 9 9 9 9 9 8 9 8 10 11 12 10 11 10 10 9 8 9 9 8 10 8 9 10 9 10 10 10 10 10 10 9 10 11 12 13 13 13 11 11 11 13 13 13 12
7 9 8 9 8 8 9 10 10 10 10 8 10 10 7 7 6 8 10 10 11 9 10 9 9 11 12 12 10 11 10 10 9 8 9 9 9 9 8 8 8 9 10 10 11 11 12 12 12 12 11 10 11 12 13 13 12 11 12 12 13 13
5 5 7 8 9 9 9 9 9 9 9 10 9 10 9 9 7 8 9 10 11 11 11 11 10 12 12 11 10 11 10 10 9 9 8 9 10 9 9 10 9 10 11 11 11 12 13 13 12 13 13 13 12 11 11 12 12 12 12 11 11 12
9 9 8 8 8 8 8 8 8 7 8 9 9 9 8 8 8 8 9 10 11 11 12 12 13 11 10 10 10 9 9 10 10 10 10 9 10 10 10 9 11 10 11 12 11 11 12 12 12 12 12 12 12 13 12 11 10 9 9 9 10 10
8 9 10 9 9 8 8 9 10 10 11 12 10 9 9 8 10 10 10 10 11 12 13 12 11 10 10 8 8 9 10 10 9 10 9 8 10 10 11 12 12 11 11 12 12 12 11 12 12 12 12 11 12 12 12 12 12 10 8 8 9 10
9 10 9 9 6 8 10 9 10 9 9 9 9 8 11 9 10 11 11 11 12 14 11 9 9 8 8 8 8 9 11 11 10 9 9 10 10 9 10 10 11 11 11 10 11 11 10 11 12 11 12 12 12 11 12 12 12 12 12 11 10 9
10 9 7 7 9 10 9 10 10 11 11 12 10 8 9 9 11 11 10 12 13 10 7 8 7 9 9 10 11 11 10 10 11 10 11 11 11 10 10 10 10 11 12 12 12 11 10 11 9 13 19 16 14 14 11 12 13 13 13 12 11 10
8 6 5 7 9 11 11 10 9 7 8 10 9 10 10 10 11 11 11 14 12 9 8 8 9 9 11 11 10 10 11 11 11 11 11 11 11 11 11 10 12 12 11 13 13 14 12 11 10 17 17 18 13 11 11 12 11 10 11 12 13 13
7 6 6 7 8 8 7 8 8 6 10 10 9 10 6 8 9 11 12 13 10 9 10 10 10 11 12 11 12 12 12 11 11 12 12 12 11 11 9 11 14 13 12 12 13 13 13 12 14 15 14 15 17 13 11 10 11 11 11 11 12 11
6 6 6 6 7 7 9 9 6 9 11 10 11 6 8 10 11 11 11 10 9 9 9 9 10 11 11 12 11 10 9 10 11 12 12 13 12 10 12 13 12 13 13 13 14 14 13 11 15 16 20 19 19 19 14 10 11 11 12 11 11 11
6 6 5 5 5 6 6 5 8 10 8 7 4 8 9 9 10 10 12 10 9 9 8 8 8 9 10 8 8 8 9 11 13 12 10 9 9 12 12 12 14 13 13 13 13 13 12 12 17 20 24 23 23 19 16 11 12 11 12 12 12 11
5 5 4 4 4 4 3 4 6 5 4 5 6 6 7 8 9 10 10 8 6 7 8 9 10 11 10 10 10 11 12 13 12 11 10 10 12 13 13 14 13 13 12 13 12 12 12 11 19 23 25 25 21 21 16 10 9 8 8 9 11 12
3 3 4 4 4 4 3 5 3 4 6 4 6 5 7 7 9 10 7 8 9 10 9 9 9 9 9 9 10 11 13 13 13 13 11 10 9 9 9 10 10 12 12 12 13 12 12 11 18 21 23 24 20 22 13 10 12 11 11 11 10 10
1 2 3 4 3 4 5 4 2 4 3 4 4 5 6 6 9 10 9 9 9 9 8 9 10 10 10 10 11 12 13 12 12 11 8 10 10 11 11 12 12 10 11 11 11 12 11 10 16 20 22 21 19 18 11 10 9 9 10 11 12 12
2 1 1 5 5 3 4 3 2 2 3 4 3 4 6 7 10 8 7 10 9 9 9 10 10 11 11 11 13 13 12 11 9 10 9 11 11 11 11 9 8 8 9 10 11 12 11 10 14 21 22 23 22 17 12 10 10 8 8 6 6 5
3 3 2 2 5 5 4 3 1 2 5 4 4 5 7 9 9 8 10 11 8 8 9 9 10 10 11 12 13 12 12 12 12 10 9 9 9 9 7 7 7 7 7 8 10 11 11 8 8 15 19 20 20 15 8 8 7 9 9 9 8 7
3 5 5 5 6 4 4 2 2 4 5 5 4 5 9 10 10 10 7 6 6 7 8 8 10 11 11 12 11 10 11 9 8 9 10 9 8 8 8 8 8 9 9 8 9 9 10 9 8 12 19 19 20 15 11 8 10 9 8 8 9 9
1 4 5 6 5 5 4 1 2 5 5 4 4 10 12 9 7 6 7 7 7 7 9 8 10 12 11 11 11 10 9 8 9 8 9 9 8 7 7 9 8 9 8 7 7 6 6 7 8 10 17 18 17 18 13 9 9 8 9 9 9 9
4 4 6 5 4 4 4 2 4 6 5 4 9 13 7 5 6 5 5 7 7 8 8 9 9 9 10 8 8 8 9 8 8 9 10 8 8 10 10 8 8 8 7 5 6 6 6 6 10 8 16 18 20 19 19 11 10 11 11 9 9 9
5 5 7 5 3 3 3 2 5 6 5 7 14 8 4 5 5 5 6 6 7 7 8 8 9 9 7 7 9 10 10 8 8 8 8 9 8 9 9 8 7 6 5 4 4 4 5 6 7 13 14 20 20 21 18 17 12 15 11 12 11 11
4 6 7 6 4 3 3 4 6 6 6 13 9 4 5 5 5 5 6 6 7 6 7 7 7 7 7 8 9 9 9 8 8 8 8 8 9 8 8 6 6 6 6 6 5 4 5 5 7 11 15 16 21 21 24 22 17 16 10 9 9 8
5 6 8 7 5 4 4 4 6 7 9 9 2 4 5 5 5 5 6 6 6 6 5 5 6 7 7 7 9 9 8 7 7 8 6 7 7 7 7 6 6 7 7 6 7 6 5 6 6 7 12 18 19 21 22 21 21 21 18 11 7 8
4 5 7 11 7 6 4 4 5 8 11 4 4 4 4 5 5 6 7 6 5 5 4 5 5 5 6 6 7 8 8 10 9 9 8 7 7 7 8 7 7 7 7 7 6 7 7 7 7 8 8 10 13 15 22 23 23 20 18 13 8 9
6 7 7 9 9 6 6 4 6 9 9 8 6 4 4 5 5 7 6 6 5 4 4 6 6 5 5 5 4 5 6 6 7 8 8 8 8 8 7 7 8 7 7 8 8 7 7 7 7 7 8 9 10 11 13 15 14 18 17 12 8 10
6 8 8 9 10 5 6 5 7 7 7 7 6 5 5 5 6 7 6 6 4 5 5 6 7 8 6 6 7 7 6 5 7 8 9 9 9 9 8 8 8 9 9 9 8 7 7 7 8 9 10 11 10 9 9 10 10 11 11 10 8 8
7 9 9 11 8 6 6 7 8 6 7 7 5 5 5 7 6 6 5 5 4 5 4 4 5 6 6 6 5 4 5 9 9 8 6 5 6 9 10 10 9 9 8 9 10 10 10 8 10 12 9 10 11 11 10 10 10 9 9 10 11 8
7 9 10 11 8 7 8 9 8 6 6 5 5 4 7 7 6 5 5 5 5 4 4 3 4 4 5 6 6 6 2 2 4 3 7 6 6 7 6 5 8 8 8 8 8 10 13 13 11 11 18 17 17 16 14 11 11 11 8 11 19 12
7 7 10 10 6 7 7 8 8 6 6 5 5 5 7 5 6 6 5 5 5 6 6 5 5 5 5 5 6 5 6 5 3 6 6 4 5 7 7 5 4 7 8 8 7 7 9 2 7 15 18 18 18 18 17 15 15 16 15 17 13 10
7 8 10 8 7 8 7 8 7 6 6 5 5 5 6 6 6 7 6 6 5 5 5 5 5 5 5 5 5 6 6 6 6 4 6 8 7 7 8 7 8 9 11 10 8 6 4 7 11 14 18 20 20 20 20 20 19 19 18 19 16 9
7 6 7 7 7 8 8 8 8 5 5 5 5 5 6 6 6 6 5 5 5 6 5 6 6 6 6 6 6 5 5 7 7 7 6 4 7 7 7 8 9 11 12 13 13 13 11 10 11 15 16 19 20 21 20 19 20 20 20 21 12 9
7 7 7 7 7 8 7 8 7 5 4 4 4 4 6 6 6 5 5 5 6 7 6 6 6 6 6 5 5 6 6 5 6 6 8 9 6 5 4 7 10 11 13 13 14 13 12 12 14 15 16 17 18 19 19 18 13 18 21 18 10 9
7 7 6 7 7 7 7 7 6 3 3 3 3 4 4 5 4 5 5 8 7 6 7 6 6 6 6 6 6 6 6 6 5 7 8 8 10 9 7 5 5 9 12 10 10 13 13 13 14 15 14 16 17 18 18 17 9 11 10 11 6 7
6 7 6 5 5 6 6 7 4 2 2 2 2 4 5 5 4 5 5 5 7 6 6 6 6 6 7 7 6 6 6 5 6 6 5 5 5 6 6 4 3 2 5 10 8 11 12 12 13 13 15 15 18 19 20 11 9 8 9 8 7 7
Wind_Direction
214 215 215 213 209 205 206 199 193 195 199 200 200 203 202 195 193 195 199 199 202 201 197 194 195 196 196 196 190 186 190 190 189 188 185 173 169 168 171 179 185 180 179 173 170 167 168 161 162 158 158 160 155 160 155 161 156 152 158 164 155 156
219 215 213 212 211 206 198 194 196 203 200 198 206 208 199 192 195 195 202 203 202 203 198 199 196 196 196 195 189 192 195 193 189 187 179 179 172 177 173 177 185 184 178 177 171 170 166 165 168 168 166 164 166 162 160 169 161 157 160 162 162 154
220 218 215 214 209 207 200 198 199 201 201 207 202 199 198 199 198 196 204 198 208 202 202 199 195 198 196 195 194 195 198 195 193 192 185 166 181 170 176 181 184 185 184 176 175 174 172 170 171 176 167 167 166 170 166 165 167 161 163 156 157 160
231 226 221 217 206 207 203 203 197 201 209 210 202 203 204 197 197 196 197 202 204 208 207 202 197 196 198 200 197 198 197 196 196 191 171 182 182 176 180 184 184 182 180 180 180 179 177 175 174 172 169 169 169 172 172 170 169 165 161 162 161 164
213 203 199 204 209 212 207 202 202 207 211 210 213 208 211 201 197 188 189 197 203 207 207 203 198 195 201 202 202 201 196 197 195 185 183 183 180 186 184 183 180 181 180 183 183 180 180 178 175 175 174 176 174 174 178 178 173 168 166 170 169 167
201 186 198 207 214 211 210 209 211 215 212 213 215 223 217 204 196 185 186 195 203 202 202 207 201 197 201 204 203 201 199 197 196 185 188 185 176 184 188 179 178 178 182 184 183 183 180 179 180 181 184 179 178 178 177 178 179 176 175 171 168 166
202 206 200 201 207 209 208 211 211 207 211 202 213 224 222 219 204 192 192 190 195 198 202 207 205 207 204 206 201 204 198 200 195 189 191 181 184 185 176 179 176 179 181 186 186 185 185 186 183 184 187 186 183 180 177 179 179 179 179 176 172 170
248 236 219 210 208 209 215 218 214 213 212 214 210 214 207 209 199 203 197 194 193 199 203 205 205 213 211 205 205 202 199 198 195 191 195 187 187 184 185 180 181 183 187 190 190 189 190 186 186 188 188 185 182 181 181 179 179 179 179 177 173 170
235 229 228 221 214 212 215 217 221 220 219 225 218 213 202 196 193 203 204 203 201 200 207 204 207 205 211 210 205 199 200 201 197 191 194 189 190 188 186 186 184 190 189 193 187 192 191 189 188 190 190 188 184 179 176 178 179 176 176 174 171 171
235 233 229 223 223 217 220 219 214 212 213 223 219 207 199 193 193 201 204 203 210 211 209 206 202 202 204 208 209 203 203 203 201 198 192 184 194 195 192 188 190 191 193 194 191 193 191 190 190 191 190 188 185 179 178 175 173 171 170 169 174 176
233 233 229 228 222 221 224 222 223 223 227 228 223 203 205 190 191 203 203 205 213 219 211 198 198 195 195 198 205 209 206 204 204 199 195 194 198 196 197 193 190 189 195 195 193 191 191 193 196 193 186 183 186 184 176 172 171 172 172 175 175 176
236 239 226 220 217 224 225 224 223 220 218 224 221 206 208 178 201 203 203 210 218 217 206 201 193 192 191 197 204 209 207 204 202 200 201 201 199 196 194 192 191 194 195 193 196 194 192 199 198 196 191 185 181 179 178 177 178 176 173 170 170 174
241 245 223 226 223 225 225 226 229 226 227 232 220 214 204 186 201 203 204 215 217 206 194 193 199 190 198 202 202 204 205 206 200 201 203 201 198 199 195 189 193 199 196 196 195 196 198 198 199 193 189 187 180 177 180 177 174 174 173 175 174 173
295 276 253 244 239 237 234 234 229 216 228 228 223 218 182 192 203 206 212 218 210 198 196 198 193 196 203 199 204 201 203 202 202 202 202 199 199 200 188 195 201 199 197 199 199 201 201 200 196 187 175 174 180 178 177 176 175 177 178 178 177 173
264 264 255 247 242 237 235 227 221 223 229 224 224 170 180 200 204 211 218 219 210 207 204 200 199 203 205 207 204 201 196 202 207 207 202 202 199 188 194 202 200 204 201 200 201 203 200 201 186 173 182 181 175 178 175 180 175 175 178 176 175 172
265 253 241 241 247 238 247 215 215 231 228 220 187 185 202 199 210 211 219 215 208 204 201 203 203 210 214 208 202 198 200 205 213 211 207 202 193 196 199 200 204 204 204 203 203 203 201 199 187 184 190 187 184 175 171 179 178 180 178 176 173 172
271 277 294 285 265 271 268 256 229 244 225 191 194 201 196 207 212 219 222 220 215 209 208 204 201 208 205 199 197 197 203 208 213 209 207 202 200 199 199 201 203 206 205 204 203 204 203 203 196 194 191 192 184 173 171 175 167 171 171 176 175 174
247 275 289 292 329 307 270 255 236 196 227 193 197 193 204 206 216 225 217 219 213 211 207 202 208 212 209 207 204 205 210 210 208 208 204 205 209 211 206 209 206 206 206 204 202 202 206 204 199 198 197 192 181 172 174 171 173 176 180 176 174 169
296 292 295 308 310 309 301 288 219 213 212 192 208 191 209 209 224 227 218 222 218 211 205 203 206 208 207 206 207 212 214 211 211 211 199 207 209 207 207 208 206 205 204 204 203 203 207 206 197 196 198 197 179 170 181 177 180 176 173 172 174 178
271 265 277 311 311 287 291 306 226 203 219 229 199 197 219 219 233 229 222 227 219 210 205 205 204 208 207 205 211 213 215 213 212 208 198 205 205 211 212 210 209 207 207 205 207 204 206 208 202 197 194 193 188 180 177 171 173 171 162 157 158 152
292 288 326 345 321 306 322 317 201 199 239 231 214 212 225 231 236 227 225 227 217 210 207 205 206 208 207 210 214 212 212 208 207 203 195 205 205 212 203 202 206 206 206 207 207 208 209 208 204 205 202 194 188 176 161 163 155 165 172 164 162 157
341 333 329 312 284 290 309 304 200 228 242 244 209 224 236 237 231 230 230 229 214 211 208 205 207 210 209 213 213 210 213 206 200 195 194 200 199 200 194 195 198 198 204 200 202 202 201 191 187 192 192 191 183 161 164 169 167 173 165 166 165 164
238 260 276 280 287 297 292 254 228 255 253 243 227 243 240 239 238 231 227 220 217 214 212 209 208 212 214 211 210 206 205 195 197 190 191 195 195 194 194 194 197 199 202 193 194 192 193 183 178 189 190 187 164 160 154 174 175 163 161 173 177 176
304 292 287 266 261 272 275 225 232 252 260 244 246 248 251 244 234 228 224 220 220 219 215 213 215 212 214 207 196 193 200 197 190 190 191 190 189 194 197 192 196 198 195 179 177 182 181 170 174 173 182 172 169 167 166 171 179 173 174 175 183 180
274 272 271 288 287 281 270 218 244 258 257 250 252 264 264 246 239 228 226 225 224 222 218 216 211 209 200 198 193 192 196 186 187 189 183 183 187 191 194 191 190 186 178 159 169 169 162 162 169 173 178 179 175 170 170 176 179 181 178 179 183 188
275 286 289 286 286 281 263 209 253 259 258 258 268 282 267 263 249 238 235 234 230 225 224 217 212 206 196 193 187 191 186 183 185 180 183 181 181 184 188 186 174 172 171 171 164 158 159 166 172 181 175 178 179 178 186 186 181 182 187 189 193 184
269 279 289 285 283 265 248 218 234 263 261 271 311 270 270 267 263 247 245 242 237 228 225 211 206 200 195 191 181 183 181 178 170 177 182 172 179 180 184 181 173 181 178 171 175 170 165 166 172 180 182 183 189 189 189 186 188 192 186 187 185 176
267 288 291 297 292 288 260 240 218 248 256 294 310 286 276 274 265 256 248 246 235 226 196 197 204 198 193 185 187 186 180 175 176 177 174 173 180 179 181 178 175 181 174 178 172 172 172 173 174 185 188 192 192 195 198 195 193 191 187 185 172 165
297 288 286 288 296 297 284 251 243 246 271 277 274 275 254 254 247 252 255 244 232 206 187 185 181 179 179 177 173 171 171 172 173 168 170 175 178 179 180 176 176 180 177 178 178 172 172 176 182 185 188 194 195 199 200 195 190 190 189 189 178 176
277 284 285 283 287 292 283 277 266 261 263 267 266 256 238 234 232 237 241 230 215 204 194 190 179 173 172 177 168 160 160 172 171 169 176 178 180 178 185 180 185 186 184 182 172 168 170 185 191 194 191 192 191 191 189 191 190 191 193 188 181 172
279 276 281 280 287 296 291 282 278 275 264 257 249 234 228 234 227 229 229 219 200 211 205 192 180 179 170 168 166 166 177 174 175 181 191 206 189 185 181 184 194 194 190 177 173 173 185 189 202 207 186 183 184 182 183 190 191 187 189 185 161 148
262 275 279 281 292 295 288 286 281 275 264 256 241 215 223 233 229 219 216 195 196 195 183 184 183 175 166 160 158 142 87 76 152 171 172 185 188 195 205 184 192 189 178 182 193 184 181 196 206 173 182 188 187 189 189 190 188 189 177 171 161 155
282 280 279 278 282 277 276 278 278 274 265 244 233 214 226 218 222 221 208 187 195 188 183 175 171 177 161 160 152 145 139 111 77 102 109 120 151 161 162 145 127 158 180 181 183 197 205 178 154 174 184 186 190 191 192 191 194 193 186 179 161 171
283 275 278 288 289 284 282 276 271 258 258 240 230 219 221 216 211 219 209 197 187 177 178 170 167 159 156 160 155 154 148 142 123 72 107 126 140 148 153 157 158 174 184 192 190 174 177 174 174 180 190 194 194 196 198 200 199 199 190 189 168 168
280 276 276 282 282 282 280 278 276 262 255 243 231 215 216 220 216 218 208 189 174 168 165 163 166 168 164 161 160 160 155 150 149 144 127 122 132 141 154 165 168 179 190 193 194 192 187 183 178 182 188 191 194 194 196 195 195 196 193 191 186 187
287 290 293 291 288 284 286 281 278 267 259 259 247 226 223 220 218 209 193 183 177 166 168 170 171 167 167 164 164 162 162 163 156 146 141 132 126 129 144 170 185 189 191 195 193 190 188 186 183 182 181 185 188 189 189 188 188 192 194 196 191 186
290 288 285 287 290 289 281 277 277 282 292 289 261 236 236 225 207 191 188 179 172 173 171 166 164 163 159 164 167 167 163 158 153 151 154 158 156 154 152 146 164 184 182 182 187 186 185 186 187 186 183 181 182 180 177 173 172 184 192 196 172 185
286 284 291 292 282 277 275 269 273 298 310 316 271 223 220 213 192 180 176 178 176 167 165 165 166 163 166 168 171 168 162 157 158 161 158 146 141 144 144 132 131 95 167 170 169 177 171 166 166 170 171 171 174 174 170 167 180 178 189 182 175 179